Location: Albany
(35.0000°S, 118.0000°E)
Time: 02:53:33
(UTC-04:00)

ISS - All Passes

Search period start: 30 June 2016 00:00
Search period end: 10 July 2016 00:00
Orbit: 402 x 403 km, 51.6° (Epoch: 30 June)

Date Brightness Start Highest point End Pass type
(mag) Time Alt. Az. Time Alt. Az. Time Alt. Az.
30 Jun - 06:03:43 10° NNE 06:05:38 15° NE 06:07:34 10° E visible
30 Jun - 07:38:37 10° WNW 07:41:48 42° SW 07:44:59 10° SE visible
30 Jun - 14:08:51 10° SW 14:12:04 45° SE 14:15:15 10° ENE night (unlit)
30 Jun - 15:46:27 10° W 15:48:12 14° NW 15:49:56 10° NNW night (unlit)
01 Jul - 06:45:42 10° NW 06:49:00 89° NE 06:52:21 10° SE visible
01 Jul - 08:24:16 10° SW 08:25:52 13° SSW 08:27:28 10° S visible
01 Jul - 13:16:23 10° SSW 13:19:11 24° SSE 13:21:58 10° E night (unlit)
01 Jul - 14:52:42 10° WSW 14:55:37 28° NW 14:58:29 10° NNE night (unlit)
02 Jul - 05:53:12 10° NNW 05:56:17 38° NE 05:59:25 10° ESE visible
02 Jul - 07:30:18 10° W 07:32:51 20° SSW 07:35:23 10° SSE visible
02 Jul - 12:24:09 10° S 12:26:11 15° SSE 12:28:13 10° ESE night (unlit)
02 Jul - 13:59:37 10° SW 14:02:56 65° NW 14:06:11 10° NE night (unlit)
03 Jul - 05:01:19 10° N 05:03:40 18° NE 05:06:01 10° E daylight
03 Jul - 06:36:50 10° WNW 06:39:54 35° SW 06:43:00 10° SSE visible
03 Jul - 13:06:53 10° SW 13:10:10 56° SE 13:13:25 10° ENE night (unlit)
03 Jul - 14:45:17 10° WNW 14:46:12 11° NW 14:47:07 10° NW night (unlit)
04 Jul - 05:43:46 10° NW 05:47:04 73° SW 05:50:23 10° SE visible
04 Jul - 07:22:52 10° SW 07:24:01 11° SSW 07:25:10 10° S visible
04 Jul - 12:14:20 10° SSW 12:17:17 28° SE 12:20:13 10° E night (unlit)
04 Jul - 13:50:56 10° WSW 13:53:37 23° NW 13:56:17 10° N night (unlit)
05 Jul - 04:51:06 10° NNW 04:54:18 49° NE 04:57:32 10° ESE daylight
05 Jul - 06:28:38 10° WSW 06:30:57 17° SSW 06:33:17 10° SSE visible
05 Jul - 11:22:00 10° SSW 11:24:18 17° SSE 11:26:36 10° ESE night (unlit)
05 Jul - 12:57:43 10° WSW 13:00:57 50° NW 13:04:09 10° NNE night (unlit)
06 Jul - 03:59:00 10° N 04:01:38 22° NE 04:04:18 10° ESE daylight
06 Jul - 05:35:01 10° W 05:37:58 29° SW 05:40:56 10° SSE visible
06 Jul - 10:30:08 10° S 10:31:14 11° SSE 10:32:19 10° SE night (unlit)
06 Jul - 12:04:52 10° SW 12:08:11 71° SE 12:11:29 10° NE night (unlit)
07 Jul - 03:08:15 10° NE 03:09:02 11° NE 03:09:49 10° ENE daylight
07 Jul - 04:41:49 10° WNW 04:45:04 57° SW 04:48:22 10° SE daylight
07 Jul - 06:21:51 10° SSW 06:22:07 10° SSW 06:22:22 10° SSW visible
07 Jul - 11:12:14 10° SSW 11:15:19 34° SE 11:18:22 10° ENE night (unlit)
07 Jul - 12:49:11 10° W 12:51:34 18° NW 12:53:56 10° N night (unlit)
08 Jul - 03:49:01 10° NW 03:52:16 63° NE 03:55:34 10° SE daylight
08 Jul - 05:26:57 10° WSW 05:29:00 15° SSW 05:31:04 10° S daylight
08 Jul - 10:19:49 10° SSW 10:22:20 20° SSE 10:24:52 10° E night (unlit)
08 Jul - 11:55:46 10° WSW 11:58:54 39° NW 12:02:00 10° NNE night (unlit)
09 Jul - 02:56:41 10° NNW 02:59:33 28° NE 03:02:27 10° ESE daylight
09 Jul - 04:33:10 10° W 04:35:58 25° SSW 04:38:48 10° SSE daylight
09 Jul - 09:27:43 10° S 09:29:16 13° SSE 09:30:50 10° SE night (unlit)
09 Jul - 11:02:48 10° SW 11:06:09 89° SE 11:09:26 10° NE night (unlit)
